Weather in Tungala

Russia / Amur Oblast     53°33′00″N   129°26′34″E
temp.,
°C
wind,
m/s
gust,
m/s
humid.,
%
clouds,
%
prec.,
mm/h
press.,
hPa
HPBL,
m
25 january, mon
mon2500:00−33nnw22900 0.0 104220
03:00−33nnw22860 0.0 104320
06:00−34n11830 0.0 104319
09:00−33nne118010 0.0 104319
12:00−27wnw117489 0.0 1042210
15:00−25w117894 0.0 1039209
18:00−28nne1189100 0.0 103819
21:00−27n1289100 0.0 103419
26 january, tue
tue2600:00−25n2283100 0.0 103128
03:00−22e1176100 0.0 102620
06:00−21ese1279100 0.0 102280
09:00−20e21281100 0.1 1019430
12:00−18ese4995100 0.9 1016471
15:00−17ese4895100 1.6 1013451
18:00−19e3697100 0.4 1013256
21:00−21e3797100 0.6 1014249
27 january, wed
wed2700:00−22e3897100 0.3 1014288
03:00−23e2898100 0.5 1015288
06:00−24e2499100 0.3 1015136
09:00−25ene2597100 0.3 1016167
12:00−20e138698 0.0 1017339
15:00−20w239398 0.1 1017322
18:00−24wsw1199100 0.1 101820
21:00−25n1199100 0.2 102028
28 january, thu
thu2800:00−26nnw2392100 0.0 102162
03:00−26nnw2495100 0.1 1021131
06:00−28nnw3693100 0.1 1021221
09:00−28nnw2591100 0.1 1022207
12:00−26nw2393100 0.1 1023248
15:00−26nw2494100 0.1 1022221
18:00−29nw2395100 0.1 1023105
21:00−31nnw2295100 0.1 102440
29 january, fri
fri2900:00−31nnw229598 0.0 102424
03:00−31nw129698 0.1 102421
06:00−32nw129799 0.0 102319
09:00−33nw129695 0.1 102419
12:00−27wnw118778 0.0 1024284
15:00−27w229086 0.0 1023275
18:00−33wnw11975 0.0 102519
21:00−34nnw11944 0.0 102719